Weather History for Big Piney, WY

Change the Weather History Date:

Thursday, December 6, 2012

  Actual Average Record
Temperature  
Mean Temperature 29 °F 14 °F  
Max Temperature 43 °F 28 °F 47 °F (2008)
Min Temperature 15 °F 1 °F -28 °F (1978)
Degree Days  
Heating Degree Days 36 51  
Month to date heating degree days 213 299  
Since 1 July heating degree days 2378 3114  
Cooling Degree Days 0 0  
Month to date cooling degree days 0 0  
Year to date cooling degree days 67 35  
Moisture  
Dew Point 19 °F    
Average Humidity 62    
Maximum Humidity 88    
Minimum Humidity 36    
Precipitation  
Precipitation 0.00 in 0.01 in 0.04 in (2001)
Month to date precipitation 0.04 0.06  
Year to date precipitation 2.69 6.24  
Sea Level Pressure  
Sea Level Pressure 29.98 in    
Wind  
Wind Speed 5 mph (West)    
Max Wind Speed 15 mph    
Max Gust Speed 22 mph    
Visibility 10 miles    
Events      
T = Trace of Precipitation, MM = Missing Value Source: NWS Daily Summary

Daily Weather History Graph

Daily Weather History Graph

Search for Another Location

Airport:

Trip Planner

Search our weather history database for the weather conditions in past years. The results will help you decide how hot, cold, wet, or windy it might be!

Date:

Astronomy

Dec. 06, 2012 Rise Set
Actual Time 7:36 AM MST 4:47 PM MST
Civil Twilight 7:04 AM MST 5:18 PM MST
Nautical Twilight 6:29 AM MST 5:54 PM MST
Astronomical Twilight 5:55 AM MST 6:28 PM MST
Moon No Moon Rise 12:23 PM MST (12/6)
Length of Visible Light 10h 14m
Length of Day
9h 10m
Waning Gibbous, 48% of the Moon is Illuminated
Dec 6
Waning Gibbous
Dec 13
New
Dec 19
First Quarter
Dec 28
Full
Jan 4
Last Quarter

Hourly Weather History & Observations

Time (MST) Temp. Windchill Dew Point Humidity Pressure Visibility Wind Dir Wind Speed Gust Speed Precip Events Conditions
12:53 AM 24.1 °F 19.7 °F 19.9 °F 84% 30.02 in 10.0 mi East 3.5 mph - N/A   Clear
1:53 AM 24.1 °F 17.0 °F 21.0 °F 88% 30.02 in 10.0 mi East 5.8 mph - N/A   Clear
2:53 AM 19.9 °F - 16.0 °F 85% 30.06 in 10.0 mi Calm Calm - N/A   Clear
3:53 AM 19.9 °F 14.9 °F 16.0 °F 85% 30.04 in 10.0 mi Variable 3.5 mph - N/A   Partly Cloudy
4:53 AM 18.0 °F 12.7 °F 14.0 °F 84% 30.08 in 10.0 mi West 3.5 mph - N/A   Clear
5:53 AM 26.1 °F - 18.0 °F 71% 30.06 in 10.0 mi Calm Calm - N/A   Clear
6:53 AM 21.0 °F - 16.0 °F 81% 30.09 in 10.0 mi Calm Calm - N/A   Clear
7:53 AM 19.0 °F - 15.1 °F 85% 30.10 in 10.0 mi Calm Calm - N/A   Clear
8:53 AM 23.0 °F - 18.0 °F 81% 30.09 in 10.0 mi Calm Calm - N/A   Clear
9:53 AM 30.0 °F - 21.9 °F 72% 30.06 in 10.0 mi Calm Calm - N/A   Clear
10:53 AM 35.1 °F - 21.9 °F 59% 30.01 in 10.0 mi Calm Calm - N/A   Clear
11:53 AM 37.9 °F 35.5 °F 21.0 °F 51% 29.96 in 10.0 mi Variable 3.5 mph - N/A   Partly Cloudy
12:53 PM 39.0 °F 35.7 °F 19.9 °F 46% 29.95 in 10.0 mi SSW 4.6 mph - N/A   Clear
1:53 PM 42.1 °F 36.6 °F 18.0 °F 38% 29.92 in 10.0 mi West 9.2 mph - N/A   Scattered Clouds
2:53 PM 41.0 °F 37.1 °F 19.0 °F 41% 29.92 in 10.0 mi West 5.8 mph 16.1 mph N/A   Partly Cloudy
3:53 PM 37.0 °F 29.8 °F 19.9 °F 50% 29.93 in 10.0 mi West 10.4 mph - N/A   Overcast
4:53 PM 33.1 °F - 19.9 °F 59% 29.96 in 10.0 mi Calm Calm - N/A   Scattered Clouds
5:53 PM 27.0 °F 17.3 °F 19.0 °F 72% 29.93 in 10.0 mi WSW 10.4 mph - N/A   Clear
6:53 PM 30.9 °F 23.5 °F 21.0 °F 67% 29.93 in 10.0 mi West 8.1 mph - N/A   Overcast
7:53 PM 32.0 °F 24.8 °F 21.0 °F 64% 29.92 in 10.0 mi WSW 8.1 mph - N/A   Overcast
8:53 PM 30.0 °F 22.4 °F 21.0 °F 69% 29.90 in 10.0 mi WSW 8.1 mph - N/A   Mostly Cloudy
9:53 PM 27.0 °F 18.0 °F 23.0 °F 85% 29.89 in 10.0 mi NE 9.2 mph - N/A   Scattered Clouds
10:53 PM 25.0 °F 20.7 °F 19.9 °F 81% 29.88 in 10.0 mi Variable 3.5 mph - N/A   Clear
11:53 PM 28.9 °F 18.2 °F 19.0 °F 67% 29.84 in 10.0 mi NW 13.8 mph - N/A   Clear